{"data":{"norad_id":68735,"epoch":"2026-05-25T04:00:03.998880Z","epoch_age_seconds":60942,"freshness":"FRESH","line1":"1 68735U 26082H   26145.16671295 -.01855443  00000+0 -33428-1 0  9994","line2":"2 68735  97.2850   8.8268 0002272  92.3141 106.5701 15.53181818  5957","mean_motion":15.53181818,"eccentricity":0.0002272,"inclination_deg":97.285,"raan_deg":8.8268,"arg_perigee_deg":92.3141,"mean_anomaly_deg":106.5701,"bstar":-0.033428,"rev_number":595,"period_min":92.712906068799,"perigee_km":405.90133141945,"apogee_km":408.98469897835,"semimajor_km":6785.5800151989,"source":"CELESTRAK","updated_at":"2026-05-25T13:38:22.005746Z"}}